KJ6HT Weather Reports


Display with metric or nautical units.
time (UTC)temp
F
wind
direction
speed
MPH
gust
MPH
rain 1hr
in
rain 24hr
in
rain mn
in
humidity
%
barometer
mb
20260902023012 76 263 3.0 10.0 0.00 0.00 0.00 45 1011.2
20260902021606 77 315 4.0 10.0 0.00 0.00 0.00 37 1011.3
20260902020016 78 314 4.0 9.0 0.00 0.00 0.00 36 1011.4
20260902014558 79 307 3.0 12.0 0.00 0.00 0.00 39 1011.3
20260902013022 80 309 3.0 11.0 0.00 0.00 0.00 39 1011.3
20260902011611 81 308 4.0 14.0 0.00 0.00 0.00 38 1011.3
20260902010034 83 277 3.0 15.0 0.00 0.00 0.00 36 1011.3
20260902004622 84 266 6.0 18.0 0.00 0.00 0.00 34 1011.4
20260902003022 86 300 4.0 10.0 0.00 0.00 0.00 31 1011.4
20260902001616 86 300 4.0 13.0 0.00 0.00 0.00 28 1011.4
20260902000046 86 221 5.0 13.0 0.00 0.00 0.00 28 1011.5
20260901234639 87 243 6.0 16.0 0.00 0.00 0.00 25 1011.5
20260901233059 86 290 6.0 15.0 0.00 0.00 0.00 25 1011.5
20260901231513 87 245 7.0 16.0 0.00 0.00 0.00 30 1011.4
20260901230126 88 245 4.0 16.0 0.00 0.00 0.00 29 1011.4
20260901224541 88 216 6.0 13.0 0.00 0.00 0.00 29 1011.6
20260901223116 88 242 5.0 14.0 0.00 0.00 0.00 30 1011.5
20260901221528 89 249 4.0 14.0 0.00 0.00 0.00 30 1011.7
20260901220122 89 238 7.0 15.0 0.00 0.00 0.00 31 1011.8
20260901214529 90 359 3.0 13.0 0.00 0.00 0.00 29 1012.0
20260901213113 90 243 5.0 15.0 0.00 0.00 0.00 27 1012.2
20260901211530 90 224 4.0 14.0 0.00 0.00 0.00 24 1012.1
20260901210101 91 298 6.0 13.0 0.00 0.00 0.00 23 1012.2
20260901204524 90 336 4.0 15.0 0.00 0.00 0.00 23 1012.3
20260901203103 90 269 4.0 10.0 0.00 0.00 0.00 20 1012.4
20260901201515 89 311 4.0 11.0 0.00 0.00 0.00 27 1012.6
20260901200107 88 226 5.0 11.0 0.00 0.00 0.00 30 1012.9
20260901194526 86 295 3.0 10.0 0.00 0.00 0.00 33 1013.1
20260901193117 87 276 4.0 9.0 0.00 0.00 0.00 37 1013.3
20260901191527 86 259 1.0 4.0 0.00 0.00 0.00 41 1013.6
20260901190119 84 54 2.0 8.0 0.00 0.00 0.00 42 1013.7
20260901184543 83 252 3.0 7.0 0.00 0.00 0.00 41 1013.9
20260901183029 81 274 3.0 6.0 0.00 0.00 0.00 46 1013.9
20260901181625 81 266 3.0 8.0 0.00 0.00 0.00 47 1013.9
20260901180045 82 359 1.0 4.0 0.00 0.00 0.00 53 1014.0
20260901174502 80 267 1.0 4.0 0.00 0.00 0.00 57 1014.1
20260901173119 78 321 1.0 4.0 0.00 0.00 0.00 59 1014.0
20260901171542 76 286 1.0 5.0 0.00 0.00 0.00 63 1014.0
20260901170122 77 294 1.0 5.0 0.00 0.00 0.00 64 1014.1
20260901164521 75 311 1.0 3.0 0.00 0.00 0.00 68 1014.0
20260901163117 72 273 0.0 5.0 0.00 0.00 0.00 75 1013.9
20260901161534 71 312 1.0 5.0 0.00 0.00 0.00 77 1013.9
20260901160112 70 257 2.0 6.0 0.00 0.00 0.00 78 1013.9
20260901154530 69 318 2.0 6.0 0.00 0.00 0.00 80 1014.0
20260901153122 70 297 0.0 3.0 0.00 0.00 0.00 80 1013.8
20260901151537 70 22 1.0 2.0 0.00 0.00 0.00 80 1013.7
20260901150119 70 231 0.0 1.0 0.00 0.00 0.00 80 1013.8
20260901144545 69 231 0.0 1.0 0.00 0.00 0.00 86 1013.7
20260901143009 66 307 0.0 1.0 0.00 0.00 0.00 89 1013.6
20260901141607 66 307 0.0 0.0 0.00 0.00 0.00 91 1013.5
20260901140021 64 306 0.0 0.0 0.00 0.00 0.00 93 1013.2
20260901134616 62 307 0.0 0.0 0.00 0.00 0.00 92 1012.9
20260901133020 62 304 0.0 0.0 0.00 0.00 0.00 92 1012.8
20260901131614 61 304 0.0 0.0 0.00 0.00 0.00 92 1012.6
20260901130040 62 305 0.0 0.0 0.00 0.00 0.00 92 1012.5
20260901124511 62 305 0.0 0.0 0.00 0.00 0.00 91 1012.5
20260901123122 62 305 0.0 0.0 0.00 0.00 0.00 91 1012.6
20260901121558 62 305 0.0 0.0 0.00 0.00 0.00 91 1012.5
20260901120014 62 305 0.0 0.0 0.00 0.00 0.00 90 1012.6
20260901114620 62 305 0.0 0.0 0.00 0.00 0.00 90 1012.6
20260901113128 63 307 0.0 0.0 0.00 0.00 0.00 89 1012.7
20260901111546 63 304 0.0 0.0 0.00 0.00 0.00 89 1012.8
20260901110052 64 305 0.0 0.0 0.00 0.00 0.00 88 1012.8
20260901104510 64 305 0.0 0.0 0.00 0.00 0.00 88 1012.8
20260901103107 65 305 0.0 1.0 0.00 0.00 0.00 87 1012.7
20260901101528 65 307 0.0 1.0 0.00 0.00 0.00 86 1012.7
20260901100013 66 307 1.0 2.0 0.00 0.00 0.00 86 1012.7
20260901094606 66 307 0.0 3.0 0.00 0.00 0.00 85 1012.7
20260901093024 66 304 0.0 2.0 0.00 0.00 0.00 82 1012.6
20260901091616 67 290 0.0 1.0 0.00 0.00 0.00 83 1012.5
20260901090047 67 80 0.0 1.0 0.00 0.00 0.00 82 1012.5
20260901084502 68 110 0.0 2.0 0.00 0.00 0.00 80 1012.6
20260901083056 68 114 1.0 4.0 0.00 0.00 0.00 80 1012.6
20260901081522 69 248 0.0 0.0 0.00 0.00 0.00 77 1012.6
20260901080117 70 248 0.0 3.0 0.00 0.00 0.00 75 1012.5
20260901074613 71 49 0.0 2.0 0.00 0.00 0.00 70 1012.6
20260901073110 70 243 0.0 2.0 0.00 0.00 0.00 73 1012.6
20260901071601 71 243 0.0 3.0 0.00 0.00 0.00 71 1012.5
20260901070050 71 263 0.0 2.0 0.00 0.00 0.00 69 1012.5
20260901064514 72 267 0.0 2.0 0.00 0.00 0.00 68 1012.4
20260901063013 71 316 1.0 5.0 0.00 0.00 0.00 70 1012.4
20260901061617 71 294 1.0 3.0 0.00 0.00 0.00 71 1012.4
20260901060018 71 356 0.0 1.0 0.00 0.00 0.00 71 1012.4
20260901054612 71 295 0.0 2.0 0.00 0.00 0.00 72 1012.5
20260901053016 71 295 1.0 3.0 0.00 0.00 0.00 70 1012.4
20260901051619 72 298 0.0 3.0 0.00 0.00 0.00 70 1012.1
20260901050016 72 311 1.0 3.0 0.00 0.00 0.00 68 1012.1
20260901044613 73 314 1.0 2.0 0.00 0.00 0.00 66 1012.1
20260901043022 73 90 0.0 0.0 0.00 0.00 0.00 64 1012.0
20260901041612 74 110 0.0 3.0 0.00 0.00 0.00 62 1011.8
20260901040022 74 240 1.0 7.0 0.00 0.00 0.00 63 1011.3
20260901034611 74 307 2.0 6.0 0.00 0.00 0.00 63 1011.2
20260901033033 74 204 1.0 5.0 0.00 0.00 0.00 62 1010.9
20260901031535 76 129 1.0 4.0 0.00 0.00 0.00 60 1010.7
20260901030108 75 294 1.0 8.0 0.00 0.00 0.00 61 1010.5
20260901024518 76 271 2.0 10.0 0.00 0.00 0.00 58 1010.3